Date String (YYYY-MM-DD hh:mm:ss) UTC,Instrument flags,absolute air pressure of the measurement (hPa),sample flow rate (lpm),inlet stack bypass flow (lpm),air temperature of the measurement (°C),ambient temperature measured by the external sensor (°C),aerosol sample conditioner tube jacket temperature (°C),OPC LED temperature (°C),internal box temperature (°C),relative humidity of the measurement (%),span deviation,mass concentration of particles derived from Lorenz-Mie calculation of OPC scattering (μg/m³),mass concentration of particles derived from Lorenz-Mie calculation of OPC scattering (μg/m³),mass concentration of particles derived from Lorenz-Mie calculation of OPC scattering (μg/m³)
DateTimeUTC,F1_M11,P_M11,Q1_M11,Q2_M11,T1_M11,T2_M11,T3_M11,T4_M11,T5_M11,U1_M11,ZSPAN_M11,X2_M11,X0_M11,X1_M11
2024-03-27 05:00:00,SystemResetWarning,0823.0,4.99,000.00,018.3,017.4,000.0,027.1,020.1,17.2,0000.0,0004.91,0008.36,0004.53
2024-03-27 05:01:00,SystemResetWarning,0823.0,5.00,000.00,018.3,017.4,000.0,027.0,020.0,17.2,0000.0,0004.82,0007.68,0004.44
2024-03-27 05:02:00,SystemResetWarning,0823.0,5.00,000.00,018.3,017.4,000.0,027.0,020.0,17.2,0000.0,0004.69,0007.51,0004.34
2024-03-27 05:03:00,SystemResetWarning,0822.9,5.00,000.00,018.3,017.4,000.0,027.0,020.0,17.3,0000.0,0004.56,0007.27,0004.22
2024-03-27 05:04:00,SystemResetWarning,0823.0,5.00,000.00,018.3,017.4,000.0,027.0,020.0,17.4,0000.0,0004.52,0007.06,0004.19
2024-03-27 05:05:00,SystemResetWarning,0823.0,5.00,000.00,018.3,017.4,000.0,027.0,020.0,17.5,0000.0,0004.51,0007.15,0004.16
2024-03-27 05:06:00,SystemResetWarning,0823.0,5.00,000.00,018.2,017.3,000.0,027.0,020.0,17.7,0000.0,0004.54,0007.19,0004.18
2024-03-27 05:07:00,SystemResetWarning,0823.0,5.00,000.00,018.2,017.3,000.0,027.0,020.0,17.9,0001.5,0004.61,0007.33,0004.23
2024-03-27 05:08:00,SystemResetWarning,0823.0,5.00,000.00,018.2,017.3,000.0,027.0,020.0,18.0,0001.7,0004.70,0007.46,0004.29
2024-03-27 05:09:00,SystemResetWarning,0823.0,5.00,000.00,018.2,017.3,000.0,027.0,020.0,18.4,0001.8,0004.81,0007.87,0004.41
2024-03-27 05:10:00,SystemResetWarning,0823.0,5.00,000.00,018.2,017.3,000.0,027.0,020.0,18.7,0002.3,0005.00,0008.09,0004.60
2024-03-27 05:11:00,SystemResetWarning,0823.0,5.01,000.00,018.2,017.3,000.0,027.0,020.0,18.9,0001.9,0005.21,0008.20,0004.81
2024-03-27 05:12:00,SystemResetWarning,0823.1,5.01,000.00,018.2,017.3,000.0,027.0,020.0,19.3,0001.6,0005.47,0008.46,0005.07
2024-03-27 05:13:00,SystemResetWarning,0823.2,5.01,000.00,018.2,017.4,000.0,027.0,020.0,19.5,0001.9,0005.77,0009.44,0005.35
2024-03-27 05:14:00,SystemResetWarning,0823.1,5.00,000.00,018.2,017.4,000.0,026.9,020.0,19.6,0001.7,0006.05,0009.75,0005.62
2024-03-27 05:15:00,SystemResetWarning,0823.1,5.00,000.00,018.2,017.4,000.0,026.9,020.0,19.6,0001.3,0006.27,0009.97,0005.83
2024-03-27 05:16:00,SystemResetWarning,0823.2,5.00,000.00,018.2,017.4,000.0,026.9,020.0,19.7,0000.8,0006.50,0010.27,0006.06
2024-03-27 05:17:00,SystemResetWarning,0823.1,5.00,000.00,018.2,017.5,000.0,026.9,020.0,19.9,0000.8,0006.72,0010.88,0006.26
2024-03-27 05:18:00,SystemResetWarning,0823.2,5.00,000.00,018.2,017.5,000.0,026.9,020.0,20.1,0001.0,0006.98,0011.56,0006.49
2024-03-27 05:19:00,SystemResetWarning,0823.3,5.00,000.00,018.2,017.5,000.0,026.9,020.0,20.4,0001.2,0007.25,0011.89,0006.73
2024-03-27 05:20:00,SystemResetWarning,0823.3,5.00,000.00,018.2,017.5,000.0,026.9,020.0,20.3,0000.9,0007.44,0011.72,0006.91
2024-03-27 05:21:00,SystemResetWarning,0823.3,5.00,000.00,018.2,017.6,000.0,026.9,020.0,20.2,0000.8,0007.58,0011.95,0007.04
2024-03-27 05:22:00,SystemResetWarning,0823.3,5.00,000.00,018.2,017.6,000.0,026.9,020.0,20.4,0000.9,0007.71,0012.14,0007.19
2024-03-27 05:23:00,SystemResetWarning,0823.3,4.99,000.00,018.3,017.6,000.0,026.9,020.0,20.5,0001.1,0007.80,0012.23,0007.30
2024-03-27 05:24:00,SystemResetWarning,0823.2,5.00,000.00,018.3,017.6,000.0,026.9,020.0,20.4,0001.2,0007.83,0011.79,0007.34
2024-03-27 05:25:00,SystemResetWarning,0823.2,5.00,000.00,018.3,017.6,000.0,026.9,020.1,20.2,0001.6,0007.87,0011.86,0007.38
2024-03-27 05:26:00,SystemResetWarning,0823.2,5.00,000.00,018.3,017.6,000.0,026.9,020.0,19.9,0001.9,0007.88,0011.85,0007.39
2024-03-27 05:27:00,SystemResetWarning,0823.1,5.00,000.00,018.3,017.6,000.0,026.9,020.0,19.6,0002.0,0007.84,0011.71,0007.37
2024-03-27 05:28:00,SystemResetWarning,0823.2,5.00,000.00,018.3,017.6,000.0,026.9,020.1,19.5,0001.9,0007.79,0011.34,0007.34
2024-03-27 05:29:00,SystemResetWarning,0823.2,5.00,000.00,018.3,017.7,000.0,026.9,020.1,19.5,0001.9,0007.68,0010.76,0007.28
2024-03-27 05:30:00,SystemResetWarning,0823.2,5.00,000.00,018.3,017.7,000.0,026.9,020.1,19.5,0001.6,0007.58,0010.59,0007.23
2024-03-27 05:31:00,SystemResetWarning,0823.3,5.00,000.00,018.3,017.7,000.0,026.9,020.1,19.4,0001.4,0007.57,0010.60,0007.21
2024-03-27 05:32:00,SystemResetWarning,0823.3,5.00,000.00,018.3,017.7,000.0,026.9,020.1,19.4,0001.1,0007.50,0010.41,0007.15
2024-03-27 05:33:00,SystemResetWarning,0823.3,4.99,000.00,018.3,017.7,000.0,026.9,020.1,19.3,0001.2,0007.43,0010.24,0007.07
2024-03-27 05:34:00,SystemResetWarning,0823.3,4.99,000.00,018.3,017.6,000.0,026.9,020.0,19.5,0001.2,0007.34,0010.08,0006.97
2024-03-27 05:35:00,SystemResetWarning,0823.3,5.00,000.00,018.3,017.6,000.0,026.9,020.0,19.6,0000.5,0007.31,0009.93,0006.93
2024-03-27 05:36:00,SystemResetWarning,0823.3,5.01,000.00,018.3,017.6,000.0,026.9,020.0,19.7,-000.1,0007.29,0009.85,0006.90
2024-03-27 05:37:00,SystemResetWarning,0823.3,5.01,000.00,018.3,017.6,000.0,026.9,020.0,19.8,-000.5,0007.24,0009.74,0006.88
2024-03-27 05:38:00,SystemResetWarning,0823.3,5.00,000.00,018.3,017.6,000.0,026.9,020.0,19.6,-000.3,0007.26,0009.84,0006.88
2024-03-27 05:39:00,SystemResetWarning,0823.3,4.99,000.00,018.3,017.6,000.0,026.9,020.0,19.4,-000.3,0007.23,0010.09,0006.86
2024-03-27 05:40:00,SystemResetWarning,0823.3,4.99,000.00,018.3,017.6,000.0,026.9,020.0,19.4,0000.2,0007.23,0010.16,0006.85
2024-03-27 05:41:00,SystemResetWarning,0823.3,5.00,000.00,018.3,017.6,000.0,026.8,020.0,19.3,0000.2,0007.18,0010.23,0006.80
2024-03-27 05:42:00,SystemResetWarning,0823.3,5.00,000.00,018.2,017.6,000.0,026.9,020.0,19.2,0000.4,0007.11,0010.29,0006.74
2024-03-27 05:43:00,SystemResetWarning,0823.3,5.00,000.00,018.2,017.6,000.0,026.9,020.0,19.2,0000.2,0007.09,0010.97,0006.69
2024-03-27 05:44:00,SystemResetWarning,0823.3,5.01,000.00,018.2,017.5,000.0,026.9,020.0,19.0,-000.0,0007.03,0010.92,0006.64
2024-03-27 05:45:00,SystemResetWarning,0823.3,5.01,000.00,018.2,017.5,000.0,026.9,020.0,18.9,-000.5,0006.97,0010.88,0006.59
2024-03-27 05:46:00,SystemResetWarning,0823.3,4.98,000.00,018.2,017.5,000.0,026.9,020.0,18.9,-000.6,0006.95,0010.87,0006.55
2024-03-27 05:47:00,SystemResetWarning,0823.3,5.00,000.00,018.2,017.4,000.0,026.9,020.0,19.0,-000.1,0006.91,0010.81,0006.52
2024-03-27 05:48:00,SystemResetWarning,0823.3,5.01,000.00,018.2,017.4,000.0,026.9,020.0,19.1,0000.1,0006.89,0010.89,0006.51
2024-03-27 05:49:00,SystemResetWarning,0823.3,5.01,000.00,018.2,017.4,000.0,026.9,020.0,19.0,-000.1,0006.87,0010.80,0006.49
2024-03-27 05:50:00,SystemResetWarning,0823.3,4.99,000.00,018.2,017.4,000.0,026.9,020.0,19.0,0000.4,0006.87,0010.41,0006.49
2024-03-27 05:51:00,SystemResetWarning,0823.3,4.99,000.00,018.2,017.4,000.0,026.9,020.0,18.9,0000.5,0006.81,0010.34,0006.44
2024-03-27 05:52:00,SystemResetWarning,0823.3,5.00,000.00,018.2,017.4,000.0,026.9,020.0,18.8,-000.0,0006.77,0010.25,0006.39
2024-03-27 05:53:00,SystemResetWarning,0823.3,5.00,000.00,018.2,017.3,000.0,026.9,020.0,18.6,-000.2,0006.71,0010.14,0006.33
2024-03-27 05:54:00,SystemResetWarning,0823.3,5.00,000.00,018.2,017.3,000.0,026.9,020.0,18.6,0000.2,0006.65,0009.43,0006.27
2024-03-27 05:55:00,SystemResetWarning,0823.3,5.00,000.00,018.2,017.3,000.0,026.9,020.0,18.5,0000.6,0006.61,0009.39,0006.20
2024-03-27 05:56:00,SystemResetWarning,0823.3,5.00,000.00,018.2,017.3,000.0,026.9,020.0,18.3,0001.1,0006.50,0009.33,0006.10
2024-03-27 05:57:00,SystemResetWarning,0823.3,5.01,000.00,018.2,017.2,000.0,026.9,020.0,18.1,0001.4,0006.36,0009.24,0005.96
2024-03-27 05:58:00,SystemResetWarning,0823.3,5.00,000.00,018.2,017.2,000.0,026.9,020.0,18.1,0001.6,0006.17,0009.01,0005.78
2024-03-27 05:59:00,SystemResetWarning,0823.4,5.00,000.00,018.2,017.2,000.0,026.9,020.0,18.2,0000.7,0005.99,0008.77,0005.60
